www.pogodaiklimat.ru

ПОГОДА в Клерморе, OK

  • Прогноз погоды в Клерморе
  • Монитор погоды в Клерморе
  • Климат в Клерморе

АРХИВ ПОГОДЫ в Клерморе

Время (UTC), дата Ветер
(напр.,м/с)
 
Видим.   Явления Облачность Т
(С)
Тd
(С)
f
(%)
Тe
(С)
Тes
(С)
Комфортность

P
(гПа)

Po
(гПа)
Тmin
(С)
Tmax
(С)
R
(мм)
SD
(см)
05:35 26.03   11 км    ясно  +7.0  +6.0  93  +6  +6      1001.0         
05:55 26.03   11 км    ясно  +6.0  +5.0  93  +5  +5      1001.0         
06:15 26.03   8 км  дымка  ясно  +6.0  +5.0  93  +5  +5      1001.0         
06:35 26.03   2 км  дымка  ?/?  +5.0  +5.0  100  +4  +4      1001.0         
06:55 26.03   4 км  дымка  ясно  +6.0  +5.0  93  +5  +5      1001.0         
07:15 26.03   4 км  дымка  ясно  +6.0  +5.0  93  +5  +5      1001.0         
07:35 26.03   800 м  туман  8/8 90 м  +5.0  +4.0  93  +4  +4      1001.0         
07:55 26.03   2 км  дымка  5/5 90 м  +5.0  +4.0  93  +4  +4      1000.7         
08:15 26.03   4 км  дымка  ясно  +5.0  +4.0  93  +4  +4      1000.7         
08:35 26.03   400 м  туман  10/10 90 м  +3.0  +3.0  100  +2  +2      1001.0         
08:55 26.03   400 м  туман  10/10 90 м  +3.0  +3.0  100  +2  +2      1001.0         
09:15 26.03 СВ  1 км  дымка  8/8 90 м  +3.0  +3.0  100  0  0      1001.0         
09:35 26.03 СВ  2 км  дымка  ?/?  +4.0  +3.0  93  +2  +2      1001.0         
09:55 26.03 СВ  2 км  дымка  ?/?  +3.0  +3.0  100  0  0      1001.0         
10:15 26.03   800 м  туман  ?/?  +4.0  +3.0  93  +3  +3      1001.3         
10:35 26.03 СВ  1 км  дымка  ?/?  +3.0  +3.0  100  0  0      1001.3         
10:55 26.03 С  400 м  туман  10/10 90 м  +3.0  +3.0  100  -1  -1      1001.7         
11:15 26.03 СВ  н/о  туман  10/10 90 м  +3.0  +2.0  93  0  0      1002.0         
11:35 26.03   н/о  туман  10/10 90 м  +2.0  +2.0  100  +1  +1      1002.0         
11:55 26.03   400 м  туман  10/10 150 м  +3.0  +2.0  93  +2  +2      1002.3         
12:15 26.03   2 км  дымка  8/8 210 м  +5.0  +4.0  93  +4  +4      1002.6         
12:35 26.03   2 км  дымка  ?/?  +6.0  +5.0  93  +5  +5      1002.6         
12:55 26.03   3 км  дымка  ясно  +7.0  +7.0  100  +6  +7      1003.0         
13:15 26.03   5 км  дымка  ясно  +8.0  +7.0  93  +7  +11      1003.0         
13:35 26.03   8 км  дымка  ясно  +8.0  +8.0  100  +7  +11      1003.3         
13:55 26.03   11 км    ясно  +9.0  +9.0  100  +8  +12      1003.3         
14:15 26.03   16 км    ясно  +11.0  +8.0  82  +10  +19      1003.3         
14:35 26.03   16 км    ясно  +12.0  +7.0  71  +12  +20      1003.6         
14:55 26.03   16 км    5/5 690 м  +13.0  +7.0  67  +13  +17      1003.6         
15:15 26.03 ЮВ  16 км    5/5 690 м  +13.0  +7.0  67  +12  +17      1003.6         
15:35 26.03   16 км    5/5 900 м  +13.0  +6.0  62  +13  +20      1003.6         
15:55 26.03 В  16 км    ясно  +14.0  +6.0  59  +13  +23      1003.3         
16:15 26.03 СВ  16 км    ясно  +14.0  +6.0  59  +13  +26  опасность
простуды 
  1003.0         
16:35 26.03 СВ  16 км    ясно  +15.0  +5.0  51  +15  +30  опасность
простуды 
  1003.0         
16:55 26.03 СВ  16 км    ясно  +16.0  +5.0  48  +15  +25      1002.6         
17:15 26.03 СВ  16 км    ясно  +16.0  +4.0  45  +16  +28  опасность
простуды 
  1002.6         
17:35 26.03 С  16 км    ясно  +16.0  +5.0  48  +16  +33  опасность
простуды 
  1002.0         
17:55 26.03   16 км    ясно  +16.0  +3.0  42  +16  +36  опасность
простуды 
  1001.7         
18:15 26.03   16 км    ясно  +16.0  +3.0  42  +16  +36  опасность
простуды 
  1001.7         
18:35 26.03   16 км    ясно  +17.0  +4.0  42  +17  +37  опасность
простуды 
  1001.3         
18:55 26.03   16 км    ясно  +17.0  +3.0  39  +17  +37  опасность
простуды 
  1001.0         
19:15 26.03 З  16 км    ясно  +17.0  +3.0  39  +18  +31  опасность
простуды 
  1000.7         
19:35 26.03 СЗ  16 км    ясно  +18.0  +4.0  39  +19  +33  опасность
простуды 
  1000.3         
19:55 26.03 В  16 км    ясно  +18.0  +3.0  37  +19  +33  опасность
простуды 
  1000.3         
20:15 26.03   16 км    ясно  +18.0  +4.0  39  +18  +31  опасность
простуды 
  1000.0         
20:35 26.03 ЮВ  16 км    ясно  +18.0  +3.0  37  +19  +29      999.7         
20:55 26.03 В  16 км    ясно  +18.0  +3.0  37  +18  +27      999.7         
21:15 26.03 В  16 км    ясно  +18.0  +3.0  37  +19  +25      999.7         

 

Местоположение метеостанции Claremore Regional Airport: широта 36.2944 долгота -95.4797 высота над уровнем моря 221 м.

В архиве по умолчанию представлена погода в Клерморе за последние 1-2 суток. Обновление информации о фактической погоде в базе происходит ежечасно! Архивные данные за месяц целиком и за предыдущие месяцы Вы можете получить, выбрав интересующий диапазон дат из раскрывающегося списка и нажав кнопку "Ввод!".

Внимание! Архив погоды МЕТАР в базе сайта хранится не более 60 дней. Нет смысла пытаться выбрать более раннюю дату.

Внимание! Время в таблицах - всемирное. Для получения местного времени необходимо прибавить поправку, которая в Клерморе равна -6 ч.

Ветер - указаны скорость ветра в м/с и направление, откуда дует ветер: С - северный, СВ - северо-восточный, В - восточный, ЮВ - юго-восточный, Ю - южный, ЮЗ - юго-западный, З - западный, СЗ - северо-западный.
Видимость - горизонтальная дальность видимости в метрах или километрах. При видимости от 1 до 10 км при отсутствии осадков обычно наблюдается дымка, при ухудшении видимости до 1 км и менее - туман. В сухую погоду видимость может ухудшаться дымом, пылью или мглою.
Атмосферные явления - указаны явления, наблюдавшиеся в указанный момент времени.
Облачность - указаны через наклонную черту верхняя и нижняя облачность в баллах и высота нижней границы облаков в метрах. Внимание: облачность, как и прочие метеорологические величины в США измеряются автоматическими метеостанциями. Указанные значения в баллах носят условный характер и показывают процент времени, в течение которого, в среднем, лазерный луч высотомера отражался от облаков обратно.
T - Температура воздуха - температура, измеренная на высоте 2 м над землей.
Td - Температура точки росы - температура, при понижении до которой содержащийся в воздухе водяной пар достигнет насыщения.
f - Относительная влажность воздуха - влажноcть воздуха, измеренная на высоте 2 м над землей.
Te - Эффективная температура - температура, которую ощущает одетый по сезону человек в тени. Характеристика душности погоды. При расчете учитывается влияние влажности воздуха и скорости ветра на теплоощущения человека.
Tes - Эффективная температура на солнце - температура, которую ощущает человек, с поправкой на солнечный нагрев. Характеристика знойности погоды. Зависит от высоты солнца над горизонтом, облачности и скорости ветра. Ночью, в пасмурную погоду, а также при ветре 12 м/с и более поправка равна нулю.
P - Атмосферное давление - приведенное к уровню моря атмосферное давление.
Po - Атмосферное давление - измеренное на уровне метеостанции атмосферное давление.
Tmin - Минимальная температура - минимум температуры воздуха на высоте 2 м над землей.
Tmax - Максимальная температура - максимум температуры воздуха на высоте 2 м над землей.
R - Количество осадков - Количество выпавших осадков за 3 или 6 часов, мм.
SD - Снежный покров - Высота снежного покрова, см.